Back to catalog

STARLINK-4367

AliveCommunicationsSSO
NORAD 53229·PAYLOAD·🇺🇸 United States

Launched Jul 22, 2022 from Vandenberg Space Force Base

Loading…

Next Passes (next 24 hours)

TLE

FreshSource: CelesTrak SupGP

Epoch: Sep 14, 2026, 14:36 UTC

1 53229C 22084AS  26257.60881944  .00380310  00000+0  14095-1 0  2570
2 53229  97.2846 313.4971 0001547  93.5964  75.0777 15.27504154    18

Track STARLINK-4367 in real time with AllMySat

Download on the App Store